Terminal Aerodrome Forecast
Issued by NWS Green Bay, WI

Home | Current Version | Previous Version | Graphics & Text | Print | Product List | Glossary On
Versions: 1 2 3 4 5 6 7 8 9 10 11 12 13 14 15 16 17 18 19 20 21 22 23 24 25 26 27 28 29 30 31 32 33 34 35 36 37 38 39 40 41 42 43 44 45 46 47 48 49 50
000
FTUS43 KGRB 250300 AAA
TAFGRB
TAF AMD
KGRB 250345Z 2504/2524 30012G18KT 1SM -SN OVC012
      TEMPO 2504/2508 3/4SM -SN OVC008
     FM250800 30012G18KT 3SM -SN OVC008
     FM250900 30009KT 5SM -SN OVC015
     FM251300 29008KT P6SM OVC025
     FM252000 26007KT P6SM FEW030 BKN120=

USA.gov is the U.S. government's official web portal to all federal, state and local government web resources and services.